This is the latest recevied weather packets stored in our database for station/object OK1KZE-6. If no packets are shown the sender has not sent any weather packets the latest 10 day(s).
| Time | Temp. | Humidity | Pressure | Rain* | Wind** | Luminosity | Snow |
|---|---|---|---|---|---|---|---|
| 1777826408 | 23.89° C | 26% | 1014.9 hPa | - | - | - | - |
| 1777826107 | 24.44° C | 25% | 1015 hPa | - | - | - | - |
| 1777825808 | 24.44° C | 26% | 1014.9 hPa | - | - | - | - |
| 1777825507 | 24.44° C | 26% | 1015.2 hPa | - | - | - | - |
| 1777825207 | 24.44° C | 26% | 1015 hPa | - | - | - | - |
| 1777824908 | 24.44° C | 25% | 1015 hPa | - | - | - | - |
| 1777824608 | 24.44° C | 25% | 1015.1 hPa | - | - | - | - |
| 1777824307 | 24.44° C | 24% | 1015.2 hPa | - | - | - | - |
| 1777824008 | 25° C | 26% | 1015.3 hPa | - | - | - | - |
| 1777823707 | 25° C | 24% | 1015.3 hPa | - | - | - | - |
| 1777823407 | 24.44° C | 25% | 1015.4 hPa | - | - | - | - |
| 1777823108 | 25° C | 24% | 1015.3 hPa | - | - | - | - |
| 1777822507 | 24.44° C | 23% | 1015.3 hPa | - | - | - | - |
| 1777822208 | -1.11° C | 100% | 1015.5 hPa | - | - | - | - |
| 1777821907 | 25° C | 24% | 1015.6 hPa | - | - | - | - |
| 1777821607 | 25° C | 24% | 1015.7 hPa | - | - | - | - |
| 1777821007 | 25° C | 25% | 1015.7 hPa | - | - | - | - |
| 1777820708 | 25° C | 25% | 1015.7 hPa | - | - | - | - |
| 1777820408 | 25° C | 25% | 1015.7 hPa | - | - | - | - |
| 1777820107 | 25° C | 24% | 1016 hPa | - | - | - | - |
| 1777819807 | 24.44° C | 24% | 1015.9 hPa | - | - | - | - |
| 1777819507 | 24.44° C | 23% | 1015.9 hPa | - | - | - | - |
| 1777819207 | 24.44° C | 23% | 1016.1 hPa | - | - | - | - |
| 1777818908 | -1.11° C | 100% | 1016.4 hPa | - | - | - | - |
| 1777818607 | -1.11° C | 100% | 1016.2 hPa | - | - | - | - |
* Rain since midnight (hover to see other rain measurements)
** Current wind speed in m/s (hover to see current wind gust speed)